Regional Weather Roundup
Issued by NWS

Home | Current Version | Previous Version | Text Only | Print | Product List | Glossary Off
Versions: 1 2 3 4 5 6 7 8 9 10 11 12 13 14 15 16 17 18 19 20 21 22 23 24 25 26 27 28 29 30 31 32 33 34 35 36 37 38 39 40 41 42 43 44 45 46 47 48 49 50

000
ASUS43 KOAX 260310
RWRNE

WEATHER ROUNDUP FOR NEBRASKA
NATIONAL WEATHER SERVICE OMAHA NE
900 PM CST SUN JAN 25 2015

NOTES: SATELLITE DATA IS BEING USED TO AUGMENT CLOUD COVER ABOVE
       12000 FEET.
       "FAIR" INDICATES FEW OR NO CLOUDS BELOW 12,000 FEET WITH NO
       SIGNIFICANT WEATHER AND/OR OBSTRUCTIONS TO VISIBILITY.

  * THESE STATIONS DO NOT REPORT WEATHER SUCH AS RAIN...SNOW OR FOG.

NEZ001>004-019>022-054>056-260400-
NEBRASKA PANHANDLE

CITY           SKY/WX    TMP DP  RH WIND       PRES   REMARKS
SCOTTSBLUFF    CLEAR     36  31  82 NW7       30.11R WCI  30
ALLIANCE       CLEAR     36  31  82 W13       30.06R WCI  27
CHADRON        CLEAR     36  30  79 SW9       30.04S WCI  29
KIMBALL        CLEAR     41  31  67 W16       30.13R
SIDNEY         CLEAR     42  30  62 W15       30.13R
$$

NEZ057>060-069>072-079>082-260400-
SOUTHWEST NEBRASKA

CITY           SKY/WX    TMP DP  RH WIND       PRES   REMARKS
NORTH PLATTE   CLOUDY    37  25  61 CALM      30.05S
IMPERIAL       MOCLDY    41  32  70 W9        30.08F
LEXINGTON      CLOUDY    34  29  81 S3        30.06S
MCCOOK         CLOUDY    41  21  44 SW9       30.08S
OGALLALA       CLOUDY    39  32  76 W3        30.07S
$$

NEZ005>010-023>029-035>040-094-260400-
NORTH CENTRAL NEBRASKA

CITY           SKY/WX    TMP DP  RH WIND       PRES   REMARKS
VALENTINE      MOCLDY    37  27  67 SW5       29.98F WCI  33
AINSWORTH      CLOUDY    35  29  80 S5        29.98F WCI  31
BROKEN BOW     CLOUDY    31  26  82 CALM      30.04R
O`NEILL        MOCLDY    30  28  92 SW6       30.00F WCI  24
ORD            CLEAR     26  22  84 SW5       30.03F WCI  20
THEDFORD       CLOUDY    41  26  57 CALM      30.01F
$$

NEZ041-046>049-061>064-073>077-083>087-260400-
SOUTH CENTRAL NEBRASKA

CITY           SKY/WX    TMP DP  RH WIND       PRES   REMARKS
GRAND ISLAND   CLEAR     26  22  84 SW5       30.07F WCI  20
AURORA         CLEAR     28  25  88 SW5       30.06F WCI  23
HASTINGS       CLEAR     26  21  81 SW3       30.07S
HEBRON         CLEAR     26  22  87 CALM      30.10S
HOLDREGE       MOCLDY    30  23  77 S3        30.07S
KEARNEY *      CLEAR     30  25  80 SW5       30.07S WCI  25
YORK           PTCLDY    32  32 100 CALM      30.07F
$$

NEZ011>018-030>034-042>045-260400-
NORTHEAST NEBRASKA

CITY           SKY/WX    TMP DP  RH WIND       PRES   REMARKS
NORFOLK        MOCLDY    30  28  92 S5        30.03F WCI  25
ALBION         CLEAR     28  26  92 CALM      30.05S
BLAIR          CLOUDY    33  31  93 CALM      30.07R
COLUMBUS *     CLEAR     28  25  86 CALM      30.07F
FREMONT        MOCLDY    34  31  88 CALM      30.06F
TEKAMAH        CLOUDY    34  32  92 CALM      30.07F
WAYNE          CLOUDY    30  29  95 CALM      30.05S
$$

NEZ050>053-065>068-078-088>093-260400-
SOUTHEAST NEBRASKA

CITY           SKY/WX    TMP DP  RH WIND       PRES   REMARKS
LINCOLN        CLOUDY    34  29  82 CALM      30.09F
OMAHA EPPLEY   CLOUDY    36  32  85 CALM      30.08S
BEATRICE       PTCLDY    29  26  90 CALM      30.09S
FALLS CITY     CLOUDY    35  29  78 E5        30.11R WCI  31
NEBRASKA CITY  CLOUDY    35  29  78 NW3       30.09S
PLATTSMOUTH    CLOUDY    35  31  85 W3        30.08F
$$

NEZ044-045-051>053-067-260400-
OMAHA AREA

CITY           SKY/WX    TMP DP  RH WIND       PRES   REMARKS
OMAHA EPPLEY   CLOUDY    36  32  85 CALM      30.08S
BLAIR          CLOUDY    33  31  93 CALM      30.07R
FREMONT        MOCLDY    34  31  88 CALM      30.06F
MILLARD        CLOUDY    36  32  87 CALM      30.08S
OFFUTT AFB     CLOUDY    35  31  85 W3        30.08S
PLATTSMOUTH    CLOUDY    35  31  85 W3        30.08F
WAHOO          FAIR      33  29  86 S6        30.07F WCI  27
$$


USA.gov is the U.S. government's official web portal to all federal, state and local government web resources and services.